This is the latest recevied weather packets stored in our database for station/object KC3ULW-13. If no packets are shown the sender has not sent any weather packets the latest 10 day(s).
| Time | Temp. | Humidity | Pressure | Rain* | Wind** | Luminosity | Snow |
|---|---|---|---|---|---|---|---|
| 1777748073 | 7.22° C | 67% | 1018.4 hPa | 0 mm | - | 180 W/m² | - |
| 1777747771 | 7.22° C | 68% | 1018.3 hPa | 0 mm | - | 188 W/m² | - |
| 1777747466 | 7.78° C | 67% | 1018.4 hPa | 0 mm | - | 181 W/m² | - |
| 1777747162 | 7.78° C | 67% | 1018.2 hPa | 0 mm | - | 220 W/m² | - |
| 1777746859 | 7.78° C | 68% | 1018.4 hPa | 0 mm | - | 272 W/m² | - |
| 1777746554 | 8.33° C | 68% | 1018.3 hPa | 0 mm | - | 291 W/m² | - |
| 1777746250 | 7.78° C | 70% | 1018.4 hPa | 0 mm | - | 318 W/m² | - |
| 1777745946 | 7.78° C | 70% | 1018.3 hPa | 0 mm | - | 260 W/m² | - |
| 1777745645 | 7.78° C | 70% | 1018.4 hPa | 0 mm | - | 257 W/m² | - |
| 1777745343 | 7.78° C | 69% | 1018.4 hPa | 0 mm | - | 252 W/m² | - |
| 1777745040 | 7.22° C | 72% | 1018.3 hPa | 0 mm | - | 354 W/m² | - |
| 1777744736 | 7.22° C | 72% | 1018.4 hPa | 0 mm | - | 381 W/m² | - |
| 1777744429 | 7.22° C | 72% | 1018.5 hPa | 0 mm | - | 334 W/m² | - |
| 1777744127 | 6.67° C | 73% | 1018.5 hPa | 0 mm | - | 362 W/m² | - |
| 1777743824 | 6.11° C | 75% | 1018.3 hPa | 0 mm | - | 193 W/m² | - |
| 1777743520 | 6.11° C | 75% | 1018.2 hPa | 0 mm | - | 143 W/m² | - |
| 1777743218 | 6.67° C | 76% | 1018.4 hPa | 0 mm | - | 115 W/m² | - |
| 1777742916 | 6.11° C | 76% | 1018.4 hPa | 0 mm | - | 107 W/m² | - |
| 1777742612 | 6.11° C | 76% | 1018.3 hPa | 0 mm | - | 104 W/m² | - |
| 1777742308 | 6.11° C | 75% | 1018.4 hPa | 0 mm | - | 89 W/m² | - |
| 1777742005 | 6.11° C | 75% | 1018.3 hPa | 0 mm | - | 70 W/m² | - |
| 1777741702 | 6.11° C | 75% | 1018.5 hPa | 0 mm | - | 74 W/m² | - |
| 1777741398 | 6.67° C | 75% | 1018.3 hPa | 0 mm | - | 64 W/m² | - |
| 1777741094 | 6.67° C | 74% | 1018.3 hPa | 0 mm | - | 78 W/m² | - |
| 1777740792 | 6.67° C | 73% | 1018.2 hPa | 0 mm | - | 90 W/m² | - |
* Rain latest hour (hover to see other rain measurements)
** Current wind speed in m/s (hover to see current wind gust speed)